SCP
0 0 0 0 0 0 0 0 1 2 2 3 3 2 2 1 1 0 0 0 0 0 0 0 0 0 0 0 0 0 0 0 0 0 0 0 0 0 0 0 0 0 0 0
0 0 0 0 0 0 0 1 1 2 2 3 2 2 2 1 1 0 0 0 0 0 0 0 0 0 0 0 0 0 0 0 0 0 0 0 0 0 0 0 0 0 0 0
0 0 0 0 0 1 1 1 1 2 2 2 2 2 1 1 1 0 0 0 0 0 0 0 0 0 0 0 0 0 0 0 0 0 0 0 0 0 0 0 0 0 0 0
0 0 0 0 0 1 1 1 1 1 1 1 1 1 1 0 0 0 0 0 0 0 0 0 0 0 0 0 0 0 0 0 0 0 0 0 0 0 0 0 0 0 0 0
0 0 0 0 0 0 0 1 1 1 0 0 0 0 0 0 0 0 0 0 0 0 0 0 0 0 0 0 0 0 0 0 0 0 0 0 0 0 0 0 0 0 0 0
0 0 0 0 0 0 0 0 0 0 0 0 0 0 0 0 0 0 0 0 0 0 0 0 0 0 0 0 0 0 0 0 0 0 0 0 0 0 0 0 0 0 0 0
0 0 0 0 0 0 0 0 0 0 0 0 0 0 0 0 0 0 0 0 0 0 0 0 0 0 0 0 0 0 0 0 0 0 0 0 0 0 0 0 0 0 0 0
0 0 0 0 0 0 0 0 0 0 0 0 0 0 0 0 0 0 0 0 0 0 0 0 0 0 0 0 0 0 0 0 0 0 0 0 0 0 0 0 0 0 0 0
0 0 0 0 0 0 0 0 0 0 0 0 0 0 0 0 0 0 0 0 0 0 0 0 0 0 0 0 0 0 0 0 0 0 0 0 0 0 0 0 0 0 0 0
0 0 0 0 0 0 0 0 0 0 0 0 0 0 0 0 0 0 0 0 0 0 0 0 0 0 0 0 0 0 0 0 0 0 0 0 0 0 0 0 0 0 0 0
0 0 0 0 0 0 0 0 0 0 0 0 0 0 0 0 0 0 0 0 0 0 0 0 0 0 0 0 0 0 0 0 0 0 0 0 0 0 0 0 0 0 0 0
0 0 0 0 0 0 0 0 0 0 0 0 0 0 0 0 0 0 0 0 0 0 0 0 0 0 0 0 0 0 0 0 0 0 0 0 0 0 0 0 0 0 0 0
0 0 0 0 0 0 0 0 0 0 0 0 0 0 0 0 0 0 0 0 0 0 0 0 0 0 0 0 0 0 0 0 0 0 0 0 0 0 0 0 0 0 0 0
0 0 0 0 0 0 0 0 0 0 0 0 0 0 0 0 0 0 0 0 0 0 0 0 0 0 0 0 0 0 0 0 0 0 0 0 0 0 0 0 0 0 0 0
0 0 0 0 0 0 0 0 0 0 0 0 0 0 0 0 0 0 0 0 0 0 0 0 0 0 0 0 0 0 0 0 0 0 0 0 0 0 0 0 0 0 0 0
0 0 0 0 0 0 0 0 0 0 0 0 0 0 0 0 0 0 0 0 0 0 0 0 0 0 0 0 0 0 0 0 0 0 0 0 0 0 0 0 0 0 0 0
0 0 0 0 0 0 0 0 0 0 0 0 0 0 0 0 0 0 0 0 0 0 0 0 0 0 0 0 0 0 0 0 0 0 0 0 0 0 0 0 0 0 0 0
0 0 0 0 0 0 0 0 0 0 0 0 0 0 0 0 0 0 0 0 0 0 0 0 0 0 0 0 0 0 0 0 0 0 0 0 0 0 0 0 0 0 0 0
0 0 0 0 0 0 0 0 0 0 0 0 0 0 0 0 0 0 0 0 0 0 0 0 0 0 0 0 0 0 0 0 0 0 0 0 0 0 0 0 0 0 0 0
0 0 0 0 0 0 0 0 0 0 0 0 0 0 0 0 0 0 0 0 0 0 0 0 0 0 0 0 0 0 0 0 0 0 0 0 0 0 0 0 0 0 0 0
0 0 0 0 0 0 0 0 0 0 0 0 0 0 0 0 0 0 0 0 0 0 0 0 0 0 0 0 0 0 0 0 0 0 0 0 0 0 0 0 0 0 0 0
0 0 0 0 0 0 0 0 0 0 0 0 0 0 0 0 0 0 0 0 0 0 0 0 0 0 0 0 0 0 0 0 0 0 0 0 0 0 0 0 0 0 0 0
0 0 0 0 0 0 0 0 0 0 0 0 0 0 0 0 0 0 0 0 0 0 0 0 0 0 0 0 0 0 0 0 0 0 0 0 0 0 0 0 0 0 0 0
0 0 0 0 0 0 0 0 0 0 0 0 0 0 0 0 0 0 0 0 0 0 0 0 0 0 0 0 0 0 0 0 0 0 0 0 0 0 0 0 0 0 0 0
0 0 0 0 0 0 0 0 0 0 0 0 0 0 0 0 0 0 0 0 0 0 0 0 0 0 0 0 0 0 0 0 0 0 0 0 0 0 0 0 0 0 0 0
0 0 0 0 0 0 0 0 0 0 0 0 0 0 0 0 0 0 0 0 0 0 0 0 0 0 0 0 0 0 0 0 0 0 0 0 0 0 0 0 0 0 0 0
0 0 0 0 0 0 0 0 -0 -0 0 0 0 0 0 0 0 0 0 -0 0 0 0 0 0 0 0 0 0 0 0 0 0 0 0 0 0 0 0 0 0 0 0 -0
Wind_Speed
1 3 4 4 5 4 1 5 7 7 7 4 4 8 9 9 10 11 10 9 8 8 8 8 8 8 8 8 7 7 8 8 7 6 7 7 6 6 6 6 6 5 5 4
6 9 6 6 8 5 5 3 9 12 7 4 6 8 8 8 9 10 10 10 9 9 8 8 8 8 8 8 7 7 8 7 6 5 5 5 5 5 6 5 5 5 4 2
3 7 6 8 10 8 9 6 5 6 7 8 10 10 6 5 7 9 10 10 10 9 8 7 7 7 7 7 7 7 6 5 4 4 4 4 6 6 5 4 4 4 3 2
2 5 3 2 7 14 15 13 11 12 10 10 11 9 9 7 7 9 9 9 9 8 8 7 7 7 7 7 6 5 4 3 3 4 5 5 6 5 4 3 3 2 2 3
3 1 2 2 5 2 7 7 6 10 10 10 10 9 9 8 7 7 8 8 8 8 8 8 7 6 6 5 4 3 3 3 4 5 6 5 5 4 3 2 3 2 3 3
4 2 2 1 6 2 10 4 2 6 7 6 4 3 2 4 7 9 9 8 8 7 8 8 6 5 6 4 3 3 4 4 5 6 6 5 4 3 2 2 2 3 4 4
3 2 1 3 5 3 4 4 1 4 5 4 3 4 7 8 7 8 9 8 7 7 6 5 4 4 4 4 3 3 4 6 6 6 5 4 3 2 3 3 4 4 4 4
2 2 4 4 4 4 4 3 4 5 5 7 9 10 9 9 9 9 9 8 7 6 5 4 3 4 4 2 2 3 5 6 5 5 4 4 4 3 3 4 4 4 4 4
3 4 2 3 5 3 4 4 3 5 7 12 12 10 10 9 9 8 7 5 5 6 4 2 2 3 3 2 2 4 5 5 5 5 4 3 3 3 3 3 2 3 3 4
3 3 2 4 4 4 3 2 3 7 10 11 12 12 11 10 8 6 5 4 4 4 3 2 1 2 2 2 3 4 5 4 4 4 3 2 2 2 2 1 1 2 3 4
3 2 2 3 3 3 3 4 6 7 8 11 13 13 11 9 8 6 4 3 3 4 3 3 3 3 2 3 5 6 5 4 3 2 2 2 1 2 2 2 3 2 2 2
4 4 3 1 2 2 3 4 6 9 10 10 11 12 11 9 6 5 4 4 4 4 4 4 4 4 4 5 6 7 5 3 2 2 2 2 2 1 3 4 5 5 5 5
3 3 4 3 4 4 5 6 8 10 13 13 10 10 10 7 5 5 4 5 5 5 5 5 5 4 3 4 5 5 4 3 2 2 2 2 2 2 2 3 4 6 7 8
6 6 5 3 4 6 9 11 12 12 12 12 10 9 8 6 5 5 6 6 6 7 6 5 5 3 2 3 4 3 3 3 2 2 2 2 2 2 2 1 2 3 4 6
4 5 7 7 7 8 9 11 13 12 11 10 9 8 7 7 7 6 6 7 7 7 6 5 4 2 2 3 3 2 1 1 1 1 1 1 1 1 1 1 1 1 3 4
7 8 9 10 10 9 10 11 12 11 9 8 7 7 6 7 6 6 7 8 7 6 4 3 2 2 2 1 1 1 1 1 0 1 1 2 2 2 1 1 1 1 2 3
9 8 9 9 9 8 8 9 9 8 8 7 7 7 8 9 8 8 7 6 6 5 4 3 1 1 1 0 1 2 2 2 1 1 2 2 2 2 2 2 1 0 1 2
7 8 8 9 8 9 9 8 7 7 6 7 8 9 9 10 9 8 7 7 6 5 3 2 2 3 3 3 2 1 2 2 2 2 2 3 3 2 2 2 2 1 1 2
8 9 8 8 8 9 8 7 6 6 6 7 9 9 8 8 8 7 7 7 6 4 2 3 6 5 4 4 4 3 4 4 4 3 3 4 4 3 3 2 2 1 1 2
9 9 9 8 8 8 7 6 6 6 7 9 9 9 8 7 8 7 6 4 2 2 0 3 4 4 4 3 5 3 4 4 4 3 3 3 3 3 2 2 2 2 3 3
10 10 10 9 9 8 8 8 8 8 8 10 10 9 8 7 7 7 6 3 0 2 4 5 4 3 3 4 5 4 4 4 4 3 3 3 3 3 3 3 3 3 4 4
9 9 10 9 8 8 7 7 8 8 8 8 9 9 8 7 6 5 4 3 2 5 4 3 3 5 6 6 4 4 4 4 4 3 3 3 3 3 3 4 4 4 4 4
9 9 9 9 9 8 7 7 8 8 8 8 8 8 8 6 5 5 3 1 3 6 5 3 6 10 10 6 4 5 5 5 4 4 4 4 4 4 4 4 4 4 4 4
9 9 9 8 8 7 7 7 7 7 7 7 7 8 8 6 3 2 3 5 6 6 4 4 8 8 7 4 4 4 4 4 4 4 4 4 4 4 4 4 4 4 4 6
10 9 8 9 7 6 6 7 7 6 6 5 6 7 6 6 6 4 3 4 5 4 3 3 6 7 4 3 3 4 3 4 4 4 4 4 4 4 4 4 5 4 4 5
8 7 6 6 6 5 5 6 5 4 4 5 4 5 5 4 5 4 3 3 3 2 2 2 3 5 4 4 3 3 3 4 4 4 4 4 5 5 5 5 6 5 4 5
8 6 5 5 4 5 5 5 5 5 5 7 6 5 6 5 4 4 3 2 2 1 1 2 3 4 4 4 4 4 4 4 4 4 4 4 4 5 5 6 5 5 5 5
Wind_Direction
40 1 0 349 347 6 99 168 159 154 130 133 127 125 122 119 115 112 110 109 109 107 104 98 93 90 91 90 85 88 87 81 76 74 73 74 73 70 69 70 75 76 84 99
11 3 0 9 8 48 48 76 122 116 101 85 88 97 106 120 125 128 129 127 121 116 111 105 100 97 92 85 77 76 77 74 71 70 70 72 75 76 74 66 58 60 66 69
353 341 23 16 1 71 63 35 115 119 120 114 85 69 70 105 123 127 131 129 126 123 116 109 101 97 88 79 72 71 70 70 76 80 77 77 86 78 74 65 57 57 49 33
53 39 53 91 63 74 69 48 63 92 102 103 98 78 53 58 102 115 121 123 122 120 112 102 95 88 83 76 72 73 74 82 93 100 94 87 82 77 67 59 52 37 13 3
103 97 301 78 22 64 99 51 56 105 116 125 124 86 50 39 73 99 110 116 116 116 113 104 96 92 89 85 83 89 95 100 99 104 101 92 85 75 63 58 35 12 6 16
115 132 220 312 326 90 105 77 20 115 137 159 167 114 126 95 98 103 107 109 111 108 105 100 93 94 100 101 105 104 101 92 93 100 102 100 94 77 49 51 38 27 25 24
116 162 262 301 316 50 124 183 175 116 128 133 123 134 131 122 112 112 112 110 109 107 105 107 107 102 103 101 104 110 102 95 96 101 103 100 84 65 55 51 44 32 20 359
116 176 244 320 40 93 164 157 116 118 122 119 119 118 124 126 125 122 118 114 112 110 110 114 114 111 105 117 133 115 104 99 95 92 92 94 86 61 54 56 43 17 0 344
175 201 233 51 98 127 138 122 131 139 142 137 136 137 134 132 129 125 121 119 116 118 115 112 125 130 133 172 141 111 106 106 102 96 90 100 101 84 56 46 39 4 352 338
70 62 71 65 68 52 66 100 134 143 145 145 141 141 137 134 131 127 123 122 119 120 119 119 122 122 149 158 125 113 116 118 118 113 105 97 102 115 106 72 33 356 341 328
92 132 70 33 44 57 60 80 103 116 131 139 137 139 138 137 137 136 135 133 131 128 123 117 106 91 85 100 111 112 118 125 134 144 157 167 177 187 179 203 197 209 267 285
196 202 161 222 338 60 85 102 123 120 115 124 131 133 133 134 134 137 141 136 126 120 113 107 99 86 76 87 105 115 123 140 158 175 197 201 210 274 259 238 239 240 253 276
145 118 111 88 45 61 87 97 107 115 123 125 124 129 130 130 136 139 139 139 135 128 119 110 101 93 91 101 111 122 142 169 193 208 216 216 209 214 282 307 289 281 287 302
111 104 89 73 77 83 95 98 100 103 111 117 121 125 128 129 136 143 145 140 128 120 116 114 109 107 113 114 117 134 160 192 203 230 236 227 214 202 202 217 333 333 328 338
79 100 118 112 100 97 102 107 107 109 114 116 123 128 133 134 137 138 132 123 116 115 120 123 126 146 147 127 134 154 173 213 236 244 237 185 160 150 142 121 75 9 356 351
107 105 114 115 115 114 115 115 115 120 124 126 129 131 129 127 123 117 117 120 119 125 134 137 160 216 197 169 214 246 266 264 180 116 68 80 101 111 113 106 88 49 14 344
134 138 138 134 131 126 124 124 127 129 131 131 129 121 113 107 102 101 101 103 109 113 112 108 103 112 130 158 251 248 252 262 201 81 75 90 103 111 118 116 119 95 319 326
147 148 149 145 140 135 133 130 130 130 133 133 124 117 115 114 115 113 109 100 88 75 66 71 54 44 30 18 39 67 87 102 104 98 93 92 97 96 94 92 91 78 313 327
140 143 145 141 138 137 137 138 143 143 134 123 119 120 120 121 121 120 112 101 97 87 11 22 42 45 24 22 53 77 85 84 80 82 87 89 83 78 86 89 81 50 358 0
147 147 144 141 137 137 139 142 138 129 124 120 116 112 111 116 121 119 111 109 140 173 61 58 54 37 18 32 70 82 84 87 88 88 84 82 82 75 73 76 68 37 22 22
151 149 146 143 140 138 137 133 126 125 124 123 123 123 122 120 117 115 111 107 136 97 79 64 47 23 26 64 76 78 78 80 84 89 88 82 77 72 65 58 51 45 38 30
146 145 143 140 136 133 132 128 126 126 124 123 124 123 121 119 113 105 107 146 155 113 89 57 39 52 73 73 66 66 66 69 74 79 78 78 80 76 66 62 57 52 46 38
139 136 135 137 137 137 134 130 130 131 131 131 131 131 131 134 133 126 124 162 125 110 97 75 73 73 74 66 63 64 66 69 72 77 78 79 82 83 78 68 62 58 51 41
131 131 133 133 129 130 136 140 137 137 136 134 137 138 133 123 111 124 145 141 133 117 103 96 90 90 88 76 69 68 68 73 76 79 79 75 75 76 76 73 66 59 54 48
132 131 130 130 132 141 146 140 132 132 128 121 129 137 137 137 141 153 150 149 143 118 93 91 106 112 106 94 85 78 75 85 97 96 86 81 76 77 76 74 70 64 57 49
132 134 138 144 145 142 140 134 135 142 130 118 119 130 126 125 131 137 147 171 169 125 94 81 106 107 104 100 98 92 83 82 83 86 91 88 82 80 79 77 73 65 57 50
128 127 128 130 137 138 137 140 145 150 141 134 135 141 139 140 145 158 172 186 186 154 114 122 122 113 106 99 93 86 81 80 83 87 90 90 88 84 81 80 75 68 59 52